AMSC 1 1 23553C 95019A 22184.25000000 .00000016 00000+0 00000+0 0 1847 2 23553 11.9592 26.1093 0005649 58.2859 179.3410 1.00273295 14 ANIK F1 1 26624C 00076A 22184.00000000 .00000028 00000+0 00000+0 0 1844 2 26624 1.4731 92.4797 0011061 8.0048 71.3719 1.00271476 12 NIMIQ 2 1 27632C 02062A 22184.25000000 .00000028 00000+0 00000+0 0 1848 2 27632 6.0394 70.4398 0005360 62.5983 129.0387 1.00269913 14 ANIK F2 1 28378C 04027A 22184.20833333 .00000040 00000+0 00000+0 0 1841 2 28378 0.0679 105.2143 0001059 53.5126 86.4128 1.00271551 17 XTAR-EUR 1 28542C 05005A 22184.25000000 .00000241 00000+0 00000+0 0 1846 2 28542 0.6160 94.5386 0002816 0.2362 305.4606 1.00271832 10 ANIK F1R 1 28868C 05036A 22184.20833333 .00000016 00000+0 00000+0 0 1849 2 28868 0.5979 93.5847 0002813 339.7492 175.5701 1.00272438 15 ANIK F3 1 31102C 07009A 22184.20833333 -.00003543 00000+0 00000+0 0 1845 2 31102 0.0037 346.9078 0002003 97.9984 152.5911 1.00271750 15 NIMIQ 4 1 33373C 08044A 22184.20833333 -.00003833 00000+0 00000+0 0 1849 2 33373 0.0010 359.3291 0001584 94.3229 180.5612 1.00272626 11 TELSTAR 11N 1 34111C 09009A 22184.25000000 -.00000161 00000+0 00000+0 0 1845 2 34111 0.0086 65.3130 0001356 26.5062 241.8860 1.00271134 19 TERRESTAR-1 1 35496C 09035A 22184.25000000 .00000040 00000+0 00000+0 0 1846 2 35496 3.2190 38.9076 0002609 62.1611 159.1640 1.00271979 14 NIMIQ 5 1 35873C 09050A 22184.20833333 -.00000167 00000+0 00000+0 0 1841 2 35873 0.0068 61.4999 0003326 68.2815 153.7306 1.00271567 19 SKYTERRA 1 1 37218C 10061A 22184.25000000 -.00000022 00000+0 00000+0 0 1842 2 37218 2.4612 33.0693 0001572 20.7439 216.1150 1.00271954 18 TELSTAR 14R 1 37602C 11021A 22184.25000000 -.00000190 00000+0 00000+0 0 1842 2 37602 0.0145 13.5126 0002686 57.2120 237.5293 1.00269250 14 NIMIQ 6 1 38342C 12026A 22184.20833333 -.00000084 00000+0 00000+0 0 1840 2 38342 0.0135 333.6660 0002348 123.2807 168.1647 1.00271366 18 ANIK G1 1 39127C 13014A 22184.20833333 .00000013 00000+0 00000+0 0 1841 2 39127 0.0083 99.5825 0000445 16.6956 132.6328 1.00272212 12 TELSTAR 12V 1 41036C 15068A 22184.25000000 -.00003512 00000+0 00000+0 0 1844 2 41036 0.0000 5.9721 0001828 86.7112 263.5694 1.00271453 13 VIASAT-2 1 42740C 17029A 22183.91666667 -.00003295 00000+0 00000+0 0 1832 2 42740 0.0286 282.1563 0000319 303.2134 315.6343 1.00271308 19 LEO VANTAGE 1 1 43113C 18004C 22184.00000000 .00002133 00000+0 16831-3 0 1848 2 43113 99.2462 265.6742 0402347 144.5457 355.4665 14.53846830 15 TELSTAR 19V 1 43562C 18059A 22183.25000000 -.00000190 00000+0 00000+0 0 1830 2 43562 0.0173 98.4701 0002739 36.6253 172.1585 1.00271991 18 TELSTAR 18V (APSTAR 5C) 1 43611C 18069A 22184.20833333 -.00000210 00000+0 00000+0 0 1849 2 43611 0.0003 38.3098 0001877 62.9767 32.9289 1.00269653 17 AMOS-17 1 44479C 19050A 22184.20833333 .00000199 00000+0 00000+0 0 1848 2 44479 0.0211 73.8691 0001906 30.3847 268.9585 1.00270286 19